TimeCST,TemperatureF,Dew PointF,Humidity,Sea Level PressureIn,VisibilityMPH,Wind Direction,Wind SpeedMPH,Gust SpeedMPH,PrecipitationIn,Events,Conditions,WindDirDegrees,DateUTC
12:58 AM,-17.9,-22.7,78,30.46,10.0,Calm,Calm,-,,,Clear,0,2014-01-03 06:58:00
1:58 AM,-18.9,-24.0,78,30.46,10.0,Calm,Calm,-,,,Clear,0,2014-01-03 07:58:00
2:58 AM,-17.3,-22.2,79,30.46,10.0,Calm,Calm,-,,,Clear,0,2014-01-03 08:58:00
3:58 AM,-21.5,-27.0,75,30.43,10.0,SE,2.3,-,,,Clear,130,2014-01-03 09:58:00
4:58 AM,-15.3,-20.6,77,30.41,10.0,NE,1.2,-,,,Clear,50,2014-01-03 10:58:00
5:58 AM,-17.7,-22.9,77,30.39,10.0,ESE,3.5,-,,,Clear,110,2014-01-03 11:58:00
6:58 AM,-11.2,-15.9,80,30.37,10.0,SE,2.3,-,,,Mostly Cloudy,140,2014-01-03 12:58:00
7:58 AM,-9.4,-13.0,84,30.34,10.0,Calm,Calm,-,N/A,,Overcast,0,2014-01-03 13:58:00
8:58 AM,-0.4,-4.0,85,30.31,10.0,Variable,6.9,-,N/A,,Overcast,0,2014-01-03 14:58:00
9:37 AM,3.2,-2.2,78,30.19,10.0,South,11.5,-,N/A,,Overcast,190,2014-01-03 15:37:00
9:58 AM,3.2,-2.2,78,30.27,10.0,South,10.4,-,N/A,,Overcast,180,2014-01-03 15:58:00
10:58 AM,6.8,-2.2,67,30.20,10.0,SSE,17.3,26.5,N/A,,Overcast,160,2014-01-03 16:58:00
11:58 AM,10.4,1.4,67,30.14,10.0,South,18.4,25.3,N/A,,Overcast,180,2014-01-03 17:58:00
12:58 PM,12.2,1.4,62,30.05,10.0,South,17.3,27.6,N/A,,Overcast,170,2014-01-03 18:58:00
1:58 PM,12.2,1.4,62,29.98,10.0,SSE,15.0,28.8,N/A,,Scattered Clouds,160,2014-01-03 19:58:00
2:58 PM,14.0,3.2,62,29.94,10.0,SSE,18.4,27.6,N/A,,Mostly Cloudy,160,2014-01-03 20:58:00
3:58 PM,15.8,5.0,62,29.89,10.0,SSE,18.4,25.3,N/A,,Mostly Cloudy,160,2014-01-03 21:58:00
4:58 PM,14.7,5.2,66,29.86,10.0,SSE,17.3,28.8,,,Clear,160,2014-01-03 22:58:00
5:58 PM,15.8,6.8,68,29.83,10.0,South,16.1,21.9,N/A,,Mostly Cloudy,170,2014-01-03 23:58:00
6:58 PM,16.5,8.1,69,29.80,10.0,South,19.6,24.2,,,Clear,170,2014-01-04 00:58:00
7:58 PM,16.9,8.8,71,29.78,10.0,South,17.3,24.2,,,Clear,170,2014-01-04 01:58:00
8:58 PM,17.1,9.5,72,29.77,10.0,South,13.8,25.3,,,Clear,170,2014-01-04 02:58:00
9:58 PM,18.1,10.2,71,29.75,10.0,South,16.1,26.5,,,Clear,180,2014-01-04 03:58:00
10:58 PM,18.3,10.4,71,29.73,10.0,South,13.8,19.6,,,Partly Cloudy,170,2014-01-04 04:58:00
11:58 PM,18.9,10.9,71,29.67,10.0,South,10.4,23.0,,,Clear,180,2014-01-04 05:58:00